SCP
0 0 0 0 0 0 0 0 0 0 0 0 0 0 0 0 0 0 0 0 0 0 0 0 0 0 0 0 0 0 0 0 0 0 0 0 0 0 0 0 0 0 0 0
0 0 0 0 0 0 0 0 0 0 0 0 0 0 0 0 0 0 0 0 0 0 0 0 0 0 0 0 0 0 0 0 0 0 0 0 0 0 0 0 0 0 0 0
0 0 0 0 0 0 0 0 0 0 0 0 0 0 0 0 0 0 0 0 0 0 0 0 0 0 0 0 0 0 0 0 0 0 0 0 0 0 0 0 0 0 0 0
0 0 0 0 0 0 0 0 0 0 0 0 0 0 0 0 0 0 0 0 0 0 0 0 0 0 0 0 0 0 0 0 0 0 0 0 0 0 0 0 0 0 0 0
0 0 0 0 0 0 0 0 0 0 0 0 0 0 0 0 0 0 0 0 0 0 0 0 0 0 0 0 0 0 0 0 0 0 0 0 0 0 0 0 0 0 0 0
0 0 0 0 0 0 0 0 0 0 0 0 0 0 0 0 0 0 0 0 0 0 0 0 0 0 0 0 0 0 0 0 0 0 0 0 0 0 0 0 0 0 0 0
0 0 0 0 0 0 0 0 0 0 0 0 0 0 0 0 0 0 0 0 0 0 0 0 0 0 0 0 0 0 0 0 0 0 0 0 0 0 0 0 0 0 0 0
0 0 0 0 0 0 0 0 0 0 0 0 0 0 0 0 0 0 0 0 0 0 0 0 0 0 0 0 0 0 0 0 0 0 0 0 0 0 0 0 0 0 0 0
0 0 0 0 0 0 0 0 0 0 0 0 0 0 0 0 0 0 0 0 0 0 0 0 0 0 0 0 0 0 0 0 0 0 0 0 0 0 0 0 0 0 0 0
0 0 0 0 0 0 0 0 0 0 0 0 0 0 0 0 0 0 0 0 0 0 0 0 0 0 0 0 0 0 0 0 0 0 0 0 0 0 0 0 0 0 0 0
0 0 0 0 0 0 0 0 0 0 0 0 0 0 0 0 0 0 0 0 0 0 0 0 0 0 0 0 0 0 0 0 0 0 0 0 0 0 0 0 0 0 0 0
0 0 0 0 0 0 0 0 0 0 0 0 0 0 0 0 0 0 0 0 0 0 0 0 0 0 0 0 0 0 0 0 0 0 0 0 0 0 0 0 0 0 0 0
0 0 0 0 0 0 0 0 0 0 0 0 0 0 0 0 0 0 0 0 0 0 0 0 0 0 0 0 0 0 0 0 0 0 0 0 0 0 0 0 0 0 0 0
0 0 0 0 0 0 0 0 0 0 0 0 0 0 0 0 0 0 0 0 0 0 0 0 0 0 0 0 0 0 0 0 0 0 0 0 0 0 0 0 0 0 0 0
0 0 0 0 0 0 0 0 0 0 0 0 0 0 0 0 0 0 0 0 0 0 0 0 0 0 0 0 0 0 0 0 0 0 0 0 0 0 0 0 0 0 0 0
0 0 0 0 0 0 0 0 0 0 0 0 0 0 0 0 0 0 0 0 0 0 0 0 0 0 0 0 0 0 0 0 0 0 0 0 0 0 0 0 0 0 0 0
0 0 0 0 0 0 0 0 0 0 0 0 0 0 0 0 0 0 0 0 0 0 0 0 0 0 0 0 0 0 0 0 0 0 0 0 0 0 0 0 0 0 0 0
0 0 0 0 0 0 0 0 0 0 0 0 0 0 0 0 0 0 0 0 0 0 0 0 0 0 0 0 0 0 0 0 0 0 0 0 0 0 0 0 0 0 0 0
0 0 0 0 0 0 0 0 0 0 0 0 0 0 0 0 0 0 0 0 0 0 0 0 0 0 0 0 0 0 0 0 0 0 0 0 0 0 0 0 0 0 0 0
0 0 0 0 0 0 0 0 0 0 0 0 0 0 0 0 0 0 0 0 0 0 0 0 0 0 0 0 0 0 0 0 0 0 0 0 0 0 0 0 0 0 0 0
0 0 0 0 0 0 0 0 0 0 0 0 0 0 0 0 0 0 0 0 0 0 0 0 0 0 0 0 0 0 0 0 0 0 0 0 0 0 0 0 0 0 0 0
0 0 0 0 0 0 0 0 0 0 0 0 0 0 0 0 0 0 0 0 0 0 0 0 0 0 0 0 0 0 0 0 0 0 0 0 0 0 0 0 0 0 0 0
0 0 0 0 0 0 0 0 0 0 0 0 0 0 0 0 0 0 0 0 0 0 0 0 0 0 0 0 0 0 0 0 0 0 0 0 0 0 0 0 0 0 0 0
0 0 0 0 0 0 0 0 0 0 0 0 0 0 0 0 0 0 0 0 0 0 0 0 0 0 0 0 0 0 0 0 0 0 0 0 0 0 0 0 0 0 0 0
0 0 0 0 0 0 0 0 0 0 0 0 0 0 0 0 0 0 0 0 0 0 0 0 0 0 0 0 0 0 0 0 0 0 0 0 0 0 0 0 0 0 0 0
0 0 0 0 0 0 0 0 0 0 0 0 0 0 0 0 0 0 0 0 0 0 0 0 0 0 0 0 0 0 0 0 0 0 0 0 0 0 0 0 0 0 0 0
Wind_Speed
4 4 1 5 5 3 3 3 3 4 1 1 4 6 6 3 1 2 2 2 2 2 2 1 1 1 2 2 2 2 2 2 2 2 1 1 1 1 2 2 3 3 3 3
5 1 4 1 2 2 2 2 3 3 1 1 3 6 5 3 3 3 2 2 2 3 3 2 2 2 2 2 1 2 2 2 2 1 0 0 0 0 1 1 2 3 3 3
4 2 1 2 2 2 2 4 4 3 3 2 2 6 3 1 0 1 1 1 2 2 2 1 0 1 1 1 1 1 1 2 1 1 2 2 2 2 2 2 2 2 2 3
0 2 1 2 1 2 4 3 3 2 0 3 0 6 5 3 2 2 2 2 3 2 1 1 0 0 0 0 1 1 1 1 1 2 2 2 1 0 2 2 1 2 2 2
1 1 1 1 1 2 3 1 1 2 2 2 1 3 7 1 3 5 3 3 3 2 1 1 1 1 0 0 0 0 1 1 1 2 2 2 0 1 1 1 1 2 2 2
1 0 0 1 1 2 3 4 3 3 3 4 5 5 7 3 5 4 3 3 3 2 1 1 0 1 1 1 1 1 1 1 1 1 1 1 1 0 1 1 1 1 2 2
2 1 1 1 2 2 2 4 3 4 2 6 2 4 9 4 3 3 3 3 2 2 1 0 1 1 1 1 1 1 1 1 1 1 0 0 1 1 2 2 2 1 2 2
1 3 1 1 2 3 2 4 5 5 5 5 2 7 7 3 2 1 1 2 2 2 1 1 1 1 0 0 0 0 0 1 1 1 1 1 1 1 2 2 2 2 2 2
4 3 2 2 1 3 3 2 2 4 0 4 6 7 8 2 2 2 1 1 2 3 2 1 1 1 1 1 1 1 1 1 1 1 1 1 1 1 2 3 2 2 2 2
4 2 2 2 2 3 1 4 3 4 3 6 6 5 6 4 4 3 3 3 4 3 2 2 1 1 1 1 1 1 1 1 2 1 1 2 2 2 2 2 3 3 3 2
2 3 2 2 2 3 1 2 3 3 3 4 5 8 4 5 4 4 5 4 4 3 3 2 2 1 1 1 1 1 1 1 2 2 2 2 2 2 2 3 3 3 3 2
2 4 2 4 1 0 2 4 5 4 4 4 4 9 3 3 3 3 4 4 3 3 3 2 2 1 1 1 1 2 2 2 3 2 2 3 3 2 2 3 3 3 3 2
3 4 1 4 2 2 1 1 3 3 3 4 5 9 2 1 3 3 3 4 3 3 3 2 2 2 2 2 2 2 2 3 3 2 2 3 3 3 3 4 3 3 3 2
4 3 5 7 5 3 3 2 3 5 4 6 10 11 7 6 6 5 4 4 3 3 3 3 3 3 3 3 3 3 3 3 3 3 3 3 4 4 4 4 4 3 3 2
3 3 3 4 4 2 4 6 6 8 9 9 10 10 11 7 6 5 4 4 4 3 3 3 3 3 3 3 3 3 3 3 3 3 4 4 4 4 4 4 3 3 3 3
2 2 1 4 3 4 6 7 8 9 8 9 9 12 7 5 3 3 4 4 4 4 4 4 3 3 4 4 4 3 3 3 3 4 5 4 4 4 4 3 3 3 2 2
2 3 2 4 3 3 8 8 8 6 5 6 9 9 3 4 4 4 4 4 4 4 4 4 4 3 4 4 3 3 3 3 3 4 4 4 3 3 3 3 3 3 3 2
5 4 2 1 1 7 7 1 4 5 5 6 6 5 4 4 5 4 3 3 4 4 4 4 3 3 3 3 3 3 3 3 3 4 4 3 3 3 3 3 3 3 3 3
2 5 3 2 3 8 6 2 3 4 6 4 6 6 4 4 4 4 2 1 2 3 3 3 3 3 3 3 2 2 2 2 2 3 3 3 3 3 3 4 4 3 3 4
2 2 3 3 3 7 6 2 1 2 5 3 3 4 2 1 2 4 3 3 3 3 3 3 3 3 3 3 2 2 3 3 3 4 4 4 3 4 4 4 4 4 4 4
1 1 3 4 5 9 5 1 3 2 6 2 2 2 2 3 4 4 4 4 3 3 3 3 3 3 3 3 2 3 3 4 4 4 4 4 4 4 4 4 4 4 4 4
6 5 5 4 5 9 1 4 5 5 2 1 1 2 3 4 4 4 4 4 4 4 4 3 3 4 4 3 2 3 4 5 4 4 4 4 4 4 4 3 4 4 3 4
6 6 5 8 7 2 3 4 2 1 1 2 2 3 2 3 4 4 4 4 4 4 4 3 3 4 4 3 2 3 5 4 4 4 5 5 5 4 4 4 4 4 3 3
3 1 2 4 6 4 3 2 2 2 3 2 2 2 2 3 4 4 4 4 4 4 4 3 3 4 5 4 4 4 5 4 4 5 5 5 4 4 4 4 4 3 3 4
3 2 2 5 5 4 3 3 3 3 2 2 2 2 2 3 4 4 4 4 4 4 4 3 3 4 5 5 5 5 4 3 4 5 5 4 4 4 4 4 3 5 5 6
3 5 5 6 4 3 5 3 2 2 3 3 2 3 2 2 3 3 4 4 3 4 4 4 4 5 5 5 6 5 4 3 4 5 4 4 3 3 3 3 4 7 8 10
Wind_Direction
31 70 178 218 205 193 151 175 245 263 275 160 228 257 275 283 273 267 279 292 299 287 301 31 91 101 110 105 109 116 107 89 88 77 65 49 16 16 22 20 23 28 25 21
51 299 249 203 128 129 149 205 262 292 9 194 259 271 267 248 245 245 252 286 296 319 352 25 65 80 101 121 125 127 124 119 119 104 79 50 30 351 18 9 13 17 19 10
167 240 281 133 122 131 223 205 221 245 340 9 324 296 263 272 306 24 5 297 309 289 289 307 81 102 112 113 136 157 145 134 127 88 72 56 46 32 24 4 358 351 2 358
218 308 61 103 192 181 245 221 204 209 346 288 107 284 280 275 322 336 326 328 315 310 300 285 133 65 96 168 162 168 151 125 116 107 103 104 81 346 297 311 328 338 354 351
263 343 63 153 261 180 205 120 142 165 165 292 267 236 282 338 291 283 290 306 308 308 290 251 233 222 38 63 98 107 111 113 110 118 134 137 118 299 323 339 345 344 347 347
244 322 132 207 358 132 131 73 60 62 84 264 229 199 273 245 241 261 269 292 309 307 313 318 18 56 42 46 58 61 71 55 60 88 123 151 178 306 332 322 317 327 333 332
331 335 11 53 77 40 84 90 20 348 338 251 191 212 250 262 253 228 237 272 300 305 290 285 16 35 42 48 56 54 62 28 22 39 29 228 219 222 236 255 266 288 315 308
214 286 311 11 158 175 193 154 170 215 240 277 262 235 249 263 287 274 258 273 312 324 307 255 246 237 244 272 135 135 173 333 339 345 329 314 292 256 260 268 265 259 268 271
181 249 2 23 13 130 144 183 169 139 257 278 268 285 296 290 313 316 317 323 307 304 307 292 291 288 268 261 246 231 241 292 298 291 303 294 287 290 282 278 268 264 276 279
155 221 309 337 46 29 118 147 112 139 207 264 282 270 260 267 267 283 295 288 285 294 299 298 302 307 284 256 254 241 234 256 279 279 268 290 285 280 274 280 277 269 274 271
120 156 312 16 198 207 119 141 146 154 177 199 270 268 232 228 236 245 259 267 269 279 279 276 282 284 285 283 250 239 245 264 278 279 275 282 282 283 275 274 276 271 272 258
130 126 233 249 258 268 193 192 164 180 230 202 230 268 276 236 257 250 265 272 274 283 283 279 270 274 278 278 268 257 261 267 270 268 273 279 282 284 280 281 283 278 260 251
139 125 45 333 327 357 264 200 176 143 135 185 213 265 300 324 306 286 279 286 284 292 295 294 284 273 270 269 274 274 270 273 280 275 272 276 278 277 274 278 283 278 260 255
114 140 185 215 227 188 218 212 172 153 190 224 230 256 283 289 292 294 287 280 278 272 275 275 270 269 271 271 265 269 273 270 273 273 268 267 267 265 268 274 272 267 259 246
121 190 226 260 278 252 241 236 203 205 213 224 248 252 269 273 274 277 280 280 282 283 287 279 274 276 280 282 279 270 273 271 268 264 263 265 269 272 278 275 267 269 269 264
118 181 211 281 278 264 267 256 236 236 237 242 264 273 271 287 303 298 284 279 285 283 286 292 290 287 284 279 280 283 280 277 270 261 265 273 277 277 270 267 267 271 273 269
160 153 177 266 304 324 272 237 211 216 219 205 235 255 300 311 297 286 279 278 284 290 296 294 291 284 285 280 273 266 273 277 270 268 272 274 269 269 270 272 272 266 265 261
158 158 177 255 20 248 251 234 193 212 246 227 248 276 279 277 290 290 278 267 286 301 308 310 309 308 301 287 286 284 288 285 281 279 278 279 277 277 278 274 270 266 259 253
174 163 163 171 234 274 290 257 174 202 276 232 237 270 294 317 324 306 291 268 279 296 299 303 309 316 326 324 320 323 314 305 299 295 293 291 283 280 279 275 273 269 264 260
61 125 150 165 206 248 260 263 222 113 289 264 218 255 282 24 325 293 321 336 326 325 323 324 333 342 336 329 341 338 316 313 302 297 294 292 285 278 275 274 277 276 269 266
118 142 191 204 232 261 262 219 110 161 262 288 213 224 198 208 238 279 319 328 330 330 330 337 342 336 323 329 347 325 313 301 297 300 300 298 289 279 274 275 274 272 269 271
178 177 195 178 219 256 194 132 182 226 284 282 245 243 239 255 282 302 314 319 329 333 335 336 337 327 324 332 336 315 303 301 307 306 302 296 290 283 282 275 275 269 259 262
201 196 194 198 219 256 169 194 233 249 249 263 262 270 259 272 287 301 309 312 317 320 322 329 325 321 324 323 316 298 300 310 310 307 300 297 296 290 284 275 274 272 256 255
252 208 198 251 263 262 247 259 291 268 254 268 266 272 261 268 285 295 300 308 315 317 317 321 323 318 315 317 309 291 298 305 302 299 299 299 297 293 286 277 268 263 254 256
234 180 223 257 280 308 275 247 267 274 283 297 302 286 270 269 284 286 293 298 302 308 314 315 310 304 304 311 306 302 302 306 301 296 293 295 292 285 283 280 269 270 256 256
197 187 200 239 241 232 267 294 297 269 279 284 296 309 308 278 277 289 290 291 296 302 307 311 308 305 305 308 305 305 302 295 293 297 297 292 290 286 283 286 296 293 288 287